Terug naar catalogus

ONEWEB-0170

ActiefCommunicatiePO
NORAD 48067·PAYLOAD·🇬🇧 United Kingdom

Gelanceerd Mar 25, 2021 vanaf Vostochny Cosmodrome

Loading…

Volgende Passages (komende 24 uur)

TLE

VersSource: CelesTrak SupGP

Epoch: Sep 15, 2026, 03:09 UTC

1 48067C 21025AB  26258.13140463  .00000396  00000+0  10865-2 0  2587
2 48067  87.8921 302.3306 0002281  85.5797 315.0968 13.13468174    14

Volg ONEWEB-0170 in realtime met AllMySat

Download on the App Store